[Iaude] MPEC E159: 2024 EJ3 [a=1.28,e=0.40,i=15.3,H=26.9]

mpec at cfa.harvard.edu mpec at cfa.harvard.edu
Tue Mar 12 16:59:33 EDT 2024


M.P.E.C. 2024-E159                               Issued 2024 March 12, 20:58 UT

     The Minor Planet Electronic Circulars contain information on unusual
         minor planets, routine data on comets and natural satellites,
         and occasional editorial announcements.  They are published
    on behalf of Division F of the International Astronomical Union by the
          Minor Planet Center, Smithsonian Astrophysical Observatory,
                          Cambridge, MA 02138, U.S.A.
			  
             Prepared using the Tamkin Foundation Computer Network

                              MPC at CFA.HARVARD.EDU
            URL https://www.minorplanetcenter.net/    ISSN 1523-6714

                                    2024 EJ3                                    


Observations:
     K24E03J*1C2024 03 12.28400210 47 23.892+21 44 22.13         18.73GVEE159703
     K24E03J 1C2024 03 12.28854110 47 34.699+21 46 42.67         18.79GVEE159703
     K24E03J 1C2024 03 12.29093010 47 40.499+21 47 58.49         19.89GVEE159703
     K24E03J  C2024 03 12.31324010 48 12.36 +22 07 44.9                WEE159X09
     K24E03J  C2024 03 12.31676510 48 21.05 +22 09 28.5                WEE159X09
     K24E03J  C2024 03 12.33999810 49 34.693+22 12 28.47         18.2 GVEE159H01
     K24E03J  C2024 03 12.34368710 49 43.260+22 14 16.19         18.5 GVEE159H01
     K24E03J  C2024 03 12.34749110 49 52.094+22 16 07.09         18.6 GVEE159H01
     K24E03J KC2024 03 12.36160610 50 26.372+22 23 14.86         18.59GVEE159I52
     K24E03J KC2024 03 12.36226010 50 27.874+22 23 33.61         18.60GVEE159I52
     K24E03J KC2024 03 12.36291210 50 29.371+22 23 52.26         18.59GVEE159I52
     K24E03J KC2024 03 12.36356410 50 30.858+22 24 10.91         18.53GVEE159I52
     K24E03J KC2024 03 12.43260910 53 06.508+22 55 43.43         18.82GVEE159I52
     K24E03J KC2024 03 12.43326910 53 07.980+22 56 00.49         18.48GVEE159I52
     K24E03J KC2024 03 12.43392510 53 09.420+22 56 18.02         18.85GVEE159I52
     K24E03J KC2024 03 12.43457510 53 10.871+22 56 35.05         18.76GVEE159I52
     K24E03J KB2024 03 12.51399 10 57 00.89 +23 30 05.3          18.0 GVEE159P13
     K24E03J KB2024 03 12.51610 10 57 05.29 +23 31 00.2          18.1 GVEE159P13
     K24E03J KB2024 03 12.51848 10 57 10.35 +23 32 01.6          20.2 GVEE159P13
     K24E03J KB2024 03 12.54004 10 57 46.11 +23 42 21.4          18.5 GXEE159Q06
     K24E03J KB2024 03 12.54328 10 57 52.49 +23 43 41.9          19.0 GXEE159Q06
     K24E03J KB2024 03 12.54648 10 57 58.75 +23 45 01.2          18.9 GXEE159Q06
     K24E03J KC2024 03 12.82209911 07 00.01 +25 21 58.9          19.1 GVEE159104
     K24E03J KC2024 03 12.82613911 07 06.64 +25 23 18.3          19.1 GVEE159104
     K24E03J KC2024 03 12.83017811 07 13.21 +25 24 37.4          18.5 GVEE159104
     K24E03J KC2024 03 12.83066711 07 14.123+25 24 46.16         19.7 GVEE159K63
     K24E03J KC2024 03 12.83608411 07 22.916+25 26 30.96         18.8 GVEE159K63
     K24E03J KC2024 03 12.84157511 07 31.831+25 28 17.81         18.9 GVEE159K63
     K24E03J KC2024 03 12.84164 11 07 31.50 +25 28 49.6          18.6 GVEE159C82
     K24E03J KC2024 03 12.84483 11 07 36.57 +25 29 50.0                VEE159C82
     K24E03J KC2024 03 12.84745211 07 39.80 +25 30 07.2          19.5 GVEE159L01
     K24E03J KC2024 03 12.84821111 07 41.01 +25 30 21.6          19.6 GVEE159L01
     K24E03J KC2024 03 12.84896711 07 42.23 +25 30 35.9          19.5 GVEE159L01
     K24E03J KC2024 03 12.84972511 07 43.44 +25 30 50.2          19.4 GVEE159L01
     K24E03J KC2024 03 12.85048411 07 44.66 +25 31 04.4          19.5 GVEE159L01

Observer details:
104 San Marcello Pistoiese.  Observers P. Bacci, M. Maestripieri.  Measurers
    P. Bacci, L. Tesi, G. Fagioli.  0.60-m F4 Reflector + CCD.
703 Catalina Sky Survey.  Observer H. Groeller.  Measurers T. Beuden, V. F.
    Carvajal, D. Fay, J. B. Fazekas, D. C. Fuls, A. R. Gibbs, A. D. Grauer, H.
    Groeller, J. K. Hogan, R. A. Kowalski, S. M. Larson, G. J. Leonard, D.
    Rankin, R. L. Seaman, F. C. Shelly, K. W. Wierzchos.  0.68-m Schmidt + 10K
    CCD.
C82 Osservatorio Astronomico Nastro Verde, Sorrento.  Observer N. Ruocco.
    0.35-m f/6.3  Schmidt-Cassegrain + CCD.
H01 Magdalena Ridge Observatory, Socorro.  Observers W. H. Ryan, E. V. Ryan.
    Measurer W. H. Ryan.  2.4-m f/8.9 Ritchey-Chretien + CCD.
I52 Steward Observatory, Mt. Lemmon Station.  Observer H. Groeller.  Measurers
    T. Beuden, V. F. Carvajal, D. Fay, J. B. Fazekas, D. C. Fuls, A. R. Gibbs,
    A. D. Grauer, H. Groeller, J. K. Hogan, R. A. Kowalski, S. M. Larson, G.
    J. Leonard, D. Rankin, R. L. Seaman, F. C. Shelly, K. W. Wierzchos.  1.0-m
    prime focus + CCD.
K63 G. Pascoli Observatory, Castelvecchio Pascoli.  Observer R. Bacci.  0.41-m
    f/3.75 Reflector + CCD.
L01 Visnjan Observatory, Tican.  Observers K. Korlevic, I. Lyon.  Measurer K.
    Korlevic.  1.0-m f/2.9 reflector + CCD.
P13 Baihuashan Observatory, Beijing.  Observers Z. Wang, B. Liu.  Measurer Z.
    Wang.  0.28-m f/2.2 reflector + CMO.
Q06 Tarui Observatory, Tarui.  Observer H. Watanabe.  0.35-m f/1.9 Schmidt-
    Cassegrain + CMO.
X09 Deep Random Survey, Rio Hurtado.  Observers A. Schnabel, D. Ruhela.
    Measurer S. Deen.  0.43-m reflector + CMOS.

Orbital elements:
2024 EJ3                                                 Earth MOID = 0.0057 AU
Epoch 2024 Mar. 31.0 TT = JDT 2460400.5                 Veres                   
M  51.41842              (2000.0)            P               Q                  
n   0.68155073     Peri.  279.43637     -0.01151882     -0.99906731             
a   1.2788038      Node   170.90832     +0.98925744     -0.01745135             
e   0.4045810      Incl.   15.26975     +0.14572934     +0.03949646             
P   1.45           H   26.96          G   0.15           U   7                  
Residuals in seconds of arc
240312 703 (1.8+  2.2+)   240312 I52  0.2+  0.1-    240312 104  0.3-  0.2+
240312 703  0.5-  0.1-    240312 I52  0.3+  0.4-    240312 K63  0.0   0.2+
240312 703  0.1+  0.8+    240312 I52  0.1+  0.1-    240312 K63  0.1-  0.3-
240312 X09  0.4+  0.7+    240312 I52  0.2+  0.1-    240312 K63  0.6+  0.4+
240312 X09  1.4+  0.6+    240312 P13  0.6-  0.5-    240312 C82  0.0   0.2-
240312 H01  0.2+  0.3+    240312 P13  0.3-  0.2-    240312 C82  0.1-  1.1-
240312 H01  0.2-  0.1-    240312 P13  1.6+  0.3-    240312 L01  0.3-  0.3+
240312 H01  0.3-  0.2-    240312 Q06  0.6+  0.8-    240312 L01  0.3-  0.2+
240312 I52  0.2+  0.2+    240312 Q06  0.6+  0.8-    240312 L01  0.1-  0.1+
240312 I52  0.2+  0.2+    240312 Q06  0.4+  0.7-    240312 L01  0.0   0.1-
240312 I52  0.3+  0.2+    240312 104  0.0   0.1-    240312 L01  0.1+  0.3-
240312 I52  0.1+  0.2+    240312 104  0.0   0.1+

Ephemeris:
2024 EJ3                 a,e,i = 1.28, 0.40, 15                  q = 0.7614
Date    TT    R. A. (2000) Decl.     Delta      r    Elong.  Phase     V
2024 02 11    00 17 31.4 -35 06 08   0.2346  0.8271    41.9   127.2    28.8
...
2024 02 26    00 38 27.9 -37 44 11   0.1090  0.9093    40.2   135.4    28.2
...
2024 03 05    01 04 10.8 -40 17 13   0.04502 0.9598    43.6   134.5    26.3
...
2024 03 11    08 55 49.5 -04 29 31   0.0073550.9992   141.8    38.0    17.8
2024 03 12    10 33 12.3 +18 51 32   0.01300 1.0059   159.3    20.4    18.6
2024 03 13    11 11 33.1 +26 17 03   0.02027 1.0125   156.1    23.4    19.6
...
2024 03 19    12 02 24.1 +33 44 24   0.06756 1.0527   146.8    31.2    22.6
...
2024 03 27    12 13 37.4 +34 25 27   0.1326  1.1065   142.9    32.9    24.2
...
2024 04 11    12 20 21.1 +32 44 24   0.2612  1.2056   136.7    34.8    25.9

M. P. C. Staff               (C) Copyright 2024 MPC           M.P.E.C. 2024-E159





More information about the Iaude mailing list